Flag for Germany Weather past 2 weeks in Westerstede, Lower Saxony, Germany

Now
54 °F

Partly sunny.


Feels Like: 49 °F
Forecast: 47 / 56 °F
Wind: 14 mph from South

Location: Wittmundhaven

Current Time: Oct 24, 2014 at 11:34:29 AM

Latest Report: Oct 24, 2014 at 10:20 AM


Visibility: N/A

Pressure: 30.07 "Hg

Humidity: 77%

Dew point: 46 °F

Location of WesterstedeLocation

Historic Weather in Westerstede — Graph

°F

Westerstede temperature yesterday

Maximum temperature yesterday: 54 °F (at 1:03 PM)
Minimum temperature yesterday: 46 °F (at 3:20 AM)
Average temperature yesterday: 51 °F

Past Weeks' High & Low Weather Summary

 TemperatureHumidityPressure
High68 °F (Oct 19, 12:20 PM)100% (Oct 11, 3:20 AM)30.15 "Hg (Oct 11, 3:20 AM)
Low45 °F (Oct 11, 7:20 AM)58% (Oct 22, 10:20 PM)29.33 "Hg (Oct 21, 4:20 PM)
Average55 °F88%29.82 "Hg
* Reported Oct 9 10:20 AM — Oct 24 10:20 AM, Westerstede, Weather by CustomWeather, © 2014

Note: Actual official high and low records may vary slightly from our data, if they occured in-between our weather recording intervals... More about our weather records

Advertising

Westerstede weather history for previous 24 hours

 ConditionsComfort  
Time TempWeatherWind HumidityBarometerVisibility
10:20 AM
Oct 24
54 °FPartly sunny.14 mph77%30.07 "HgN/A
9:20 AM52 °FBroken clouds.13 mph82%30.07 "HgN/A
8:20 AM52 °FPassing clouds.12 mph88%30.07 "HgN/A
7:20 AM52 °FPassing clouds.12 mph88%30.07 "HgN/A
6:20 AM54 °FPartly cloudy.13 mph82%30.07 "HgN/A
5:20 AM54 °FPassing clouds.12 mph82%30.07 "HgN/A
4:20 AM54 °FPartly cloudy.12 mph88%30.09 "Hg4 mi
3:20 AM54 °FPassing clouds.10 mph88%30.09 "Hg4 mi
2:20 AM54 °FPassing clouds.10 mph88%30.09 "Hg4 mi
1:20 AM54 °FPassing clouds.9 mph88%30.09 "Hg4 mi
12:20 AM54 °FPassing clouds.10 mph88%30.12 "Hg4 mi
11:20 PM
Oct 23
54 °FPassing clouds.8 mph88%30.12 "Hg4 mi
10:20 PM54 °FPassing clouds.8 mph88%30.12 "Hg4 mi
9:20 PM52 °FPassing clouds.7 mph94%30.12 "Hg4 mi
8:20 PM52 °FFog.8 mph94%30.12 "Hg3 mi
7:20 PM54 °FFog.9 mph88%30.12 "Hg3 mi
6:20 PM54 °FFog.9 mph88%30.12 "Hg3 mi
5:20 PM54 °FFog.10 mph88%30.12 "Hg3 mi
4:20 PM54 °FFog.10 mph88%30.12 "Hg3 mi
3:20 PM54 °FFog.10 mph88%30.12 "Hg3 mi
2:20 PM54 °FFog.13 mph88%30.12 "Hg3 mi
1:20 PM54 °FDrizzle. Fog.10 mph88%30.15 "Hg3 mi
1:03 PM54 °FDrizzle. Fog.10 mph88%30.15 "Hg2 mi
12:20 PM52 °FPartly sunny.8 mph94%30.15 "Hg4 mi
11:20 AM52 °FFog.12 mph94%30.15 "Hg3 mi
Weather by CustomWeather, © 2014

See weather overviewHow to use our weather pages